RYR91AC LICT-LIBD

Flight info

Callsign RYR91AC
Flight time 0h 50m
Altitude 36000
Route PAL DCT ROSAS DCT AMANO DCT NAXES DCT VARAL DCT POLIT DCT KUTID DCT VEGAN DCT BUMOK
Aircraft B738/M-SDE2E3FGHIRWXY/LB1

Departure

Time 2026-04-20 12:50
Airport Vincenzo Florio Airport Trapani-Birgi (LICT)

Arrival

Time 2026-04-20 13:40
Airport Bari Karol Wojtyła International Airport (LIBD)
Time Latitude Longitude Altitude Speed Heading
2026-04-20 12:45 37.90320 12.49539 30 ft 0 kts 261°
2026-04-20 12:47 37.90333 12.49533 30 ft 3 kts
2026-04-20 12:47 37.90339 12.49560 30 ft 4 kts 97°
2026-04-20 12:47 37.90327 12.49638 30 ft 14 kts 117°
2026-04-20 12:48 37.90357 12.49744 32 ft 15 kts 317°
2026-04-20 12:48 37.90426 12.49662 34 ft 14 kts
2026-04-20 12:48 37.90481 12.49707 35 ft 14 kts 36°
2026-04-20 12:48 37.90562 12.49721 34 ft 13 kts 329°
2026-04-20 12:49 37.90599 12.49676 34 ft 0 kts 306°
2026-04-20 12:50 37.90727 12.49466 34 ft 75 kts 308°
2026-04-20 12:50 37.91229 12.48650 30 ft 156 kts 311°
2026-04-20 12:50 37.92005 12.47409 535 ft 187 kts 307°
2026-04-20 12:50 37.92822 12.46140 1761 ft 188 kts 313°
2026-04-20 12:51 37.93922 12.45089 2488 ft 208 kts 334°
2026-04-20 12:51 37.95355 12.44480 2890 ft 229 kts 345°
2026-04-20 12:51 37.96933 12.44064 3507 ft 238 kts 351°
2026-04-20 12:51 37.98614 12.43775 3810 ft 264 kts 352°
2026-04-20 12:52 38.00491 12.43494 4531 ft 274 kts 351°
2026-04-20 12:52 38.02302 12.42758 5496 ft 275 kts 332°
2026-04-20 12:52 38.04006 12.41630 6416 ft 278 kts 332°
2026-04-20 12:52 38.05745 12.40498 7266 ft 283 kts 333°
2026-04-20 12:53 38.07625 12.39726 8059 ft 289 kts 356°
2026-04-20 12:53 38.09619 12.40070 8891 ft 293 kts 19°
2026-04-20 12:53 38.11423 12.41289 9678 ft 297 kts 38°
2026-04-20 12:53 38.12832 12.43223 10368 ft 305 kts 56°
2026-04-20 12:54 38.14004 12.45535 10580 ft 328 kts 60°
2026-04-20 12:54 38.14787 12.48334 10809 ft 346 kts 83°
2026-04-20 12:54 38.14736 12.51411 11341 ft 353 kts 101°
2026-04-20 12:54 38.14162 12.54447 12022 ft 355 kts 105°
2026-04-20 12:55 38.13537 12.57505 12636 ft 359 kts 105°
2026-04-20 12:55 38.12919 12.60600 13214 ft 364 kts 104°
2026-04-20 12:55 38.12309 12.63733 13781 ft 367 kts 104°
2026-04-20 12:55 38.11740 12.66910 14332 ft 371 kts 102°
2026-04-20 12:56 38.11215 12.70128 14858 ft 374 kts 102°
2026-04-20 12:56 38.10697 12.73384 15368 ft 378 kts 102°
2026-04-20 12:56 38.10175 12.76662 15863 ft 381 kts 102°
2026-04-20 12:56 38.09642 12.79970 16332 ft 384 kts 102°
2026-04-20 12:57 38.09100 12.83305 16776 ft 387 kts 102°
2026-04-20 12:57 38.08550 12.86663 17206 ft 390 kts 102°
2026-04-20 12:57 38.07993 12.90049 17620 ft 393 kts 102°
2026-04-20 12:57 38.07431 12.93456 18017 ft 396 kts 102°
2026-04-20 12:58 38.06863 12.96890 18398 ft 399 kts 102°
2026-04-20 12:58 38.06291 13.00343 18763 ft 401 kts 102°
2026-04-20 12:58 38.05715 13.03819 19117 ft 404 kts 102°
2026-04-20 12:58 38.05133 13.07318 19454 ft 406 kts 102°
2026-04-20 12:59 38.04748 13.10877 19744 ft 410 kts 88°
2026-04-20 12:59 38.05317 13.14410 20054 ft 413 kts 68°
2026-04-20 12:59 38.06784 13.17527 20389 ft 414 kts 49°
2026-04-20 12:59 38.08937 13.19956 20686 ft 416 kts 32°
2026-04-20 13:00 38.11570 13.21480 20970 ft 418 kts 19°
2026-04-20 13:00 38.14322 13.22693 21227 ft 420 kts 18°
2026-04-20 13:00 38.17104 13.23865 21452 ft 423 kts 18°
2026-04-20 13:00 38.19905 13.25040 21699 ft 425 kts 18°
2026-04-20 13:01 38.22715 13.26232 21943 ft 426 kts 18°
2026-04-20 13:01 38.25534 13.27445 22180 ft 428 kts 19°
2026-04-20 13:01 38.28353 13.28673 22393 ft 430 kts 19°
2026-04-20 13:01 38.31187 13.29917 22596 ft 432 kts 19°
2026-04-20 13:02 38.34031 13.31171 22794 ft 433 kts 19°
2026-04-20 13:02 38.36882 13.32431 22987 ft 435 kts 19°
2026-04-20 13:02 38.39745 13.33698 23169 ft 436 kts 19°
2026-04-20 13:02 38.42615 13.34969 23348 ft 438 kts 19°
2026-04-20 13:03 38.45456 13.36228 23516 ft 439 kts 19°
2026-04-20 13:03 38.48345 13.37509 23680 ft 440 kts 19°
2026-04-20 13:03 38.51243 13.38795 23838 ft 442 kts 19°
2026-04-20 13:03 38.54153 13.40087 23902 ft 445 kts 19°
2026-04-20 13:04 38.57079 13.41387 24079 ft 445 kts 19°
2026-04-20 13:04 38.60000 13.42687 24278 ft 445 kts 19°
2026-04-20 13:04 38.62928 13.43990 24426 ft 446 kts 19°
2026-04-20 13:04 38.65857 13.45295 24541 ft 447 kts 19°
2026-04-20 13:05 38.68804 13.46609 24655 ft 448 kts 19°
2026-04-20 13:05 38.71751 13.47925 24776 ft 449 kts 19°
2026-04-20 13:05 38.74706 13.49245 24896 ft 450 kts 19°
2026-04-20 13:05 38.77665 13.50569 25009 ft 451 kts 19°
2026-04-20 13:06 38.80632 13.51897 25115 ft 452 kts 19°
2026-04-20 13:06 38.83603 13.53227 25217 ft 453 kts 19°
2026-04-20 13:06 38.86578 13.54560 25316 ft 454 kts 19°
2026-04-20 13:06 38.89561 13.55898 25412 ft 454 kts 19°
2026-04-20 13:07 38.92549 13.57238 25498 ft 455 kts 19°
2026-04-20 13:07 38.95546 13.58584 25612 ft 455 kts 19°
2026-04-20 13:07 38.98535 13.59927 25755 ft 455 kts 19°
2026-04-20 13:07 39.01518 13.61270 25890 ft 454 kts 19°
2026-04-20 13:08 39.04504 13.62614 26007 ft 454 kts 19°
2026-04-20 13:08 39.07491 13.63961 26135 ft 454 kts 19°
2026-04-20 13:08 39.10469 13.65305 26260 ft 454 kts 19°
2026-04-20 13:08 39.13451 13.66651 26377 ft 454 kts 19°
2026-04-20 13:09 39.16426 13.67996 26632 ft 449 kts 19°
2026-04-20 13:09 39.19360 13.69324 26901 ft 447 kts 19°
2026-04-20 13:09 39.22287 13.70650 26957 ft 440 kts 19°
2026-04-20 13:09 39.25150 13.71947 26995 ft 436 kts 19°
2026-04-20 13:10 39.28018 13.73248 26999 ft 437 kts 19°
2026-04-20 13:10 39.30890 13.74552 27008 ft 438 kts 19°
2026-04-20 13:10 39.33767 13.75860 27011 ft 439 kts 19°
2026-04-20 13:10 39.36683 13.77186 27019 ft 449 kts 19°
2026-04-20 13:11 39.39626 13.78640 27004 ft 458 kts 25°
2026-04-20 13:11 39.42414 13.80703 27014 ft 466 kts 34°
2026-04-20 13:11 39.44956 13.83353 27004 ft 474 kts 44°
2026-04-20 13:11 39.47241 13.86469 27012 ft 480 kts 47°
2026-04-20 13:12 39.49494 13.89710 27006 ft 487 kts 48°
2026-04-20 13:12 39.51599 13.92774 27005 ft 492 kts 48°
2026-04-20 13:12 39.53889 13.96096 27004 ft 497 kts 48°
2026-04-20 13:12 39.56210 13.99433 27002 ft 501 kts 48°
2026-04-20 13:13 39.58561 14.02788 27003 ft 505 kts 47°
2026-04-20 13:13 39.60935 14.06158 27003 ft 508 kts 47°
2026-04-20 13:13 39.63327 14.09548 27002 ft 511 kts 47°
2026-04-20 13:13 39.65731 14.12954 27002 ft 513 kts 47°
2026-04-20 13:14 39.68146 14.16383 27002 ft 516 kts 47°
2026-04-20 13:14 39.70569 14.19827 27002 ft 518 kts 47°
2026-04-20 13:14 39.72999 14.23288 27002 ft 519 kts 47°
2026-04-20 13:14 39.75436 14.26763 27002 ft 520 kts 47°
2026-04-20 13:15 39.77847 14.30207 26991 ft 511 kts 47°
2026-04-20 13:15 39.80239 14.33626 27005 ft 511 kts 47°
2026-04-20 13:15 39.82635 14.37056 27012 ft 514 kts 47°
2026-04-20 13:15 39.85010 14.40459 27007 ft 516 kts 47°
2026-04-20 13:16 39.87428 14.43926 27006 ft 518 kts 48°
2026-04-20 13:16 39.89854 14.47410 27005 ft 520 kts 48°
2026-04-20 13:16 39.92284 14.50911 27003 ft 521 kts 48°
2026-04-20 13:16 39.94713 14.54420 27002 ft 523 kts 48°
2026-04-20 13:17 39.97149 14.57943 27001 ft 523 kts 48°
2026-04-20 13:17 39.99587 14.61470 27001 ft 524 kts 48°
2026-04-20 13:17 40.02024 14.64999 27001 ft 524 kts 48°
2026-04-20 13:17 40.04470 14.68529 27001 ft 524 kts 48°
2026-04-20 13:18 40.06920 14.72058 27001 ft 525 kts 48°
2026-04-20 13:18 40.09371 14.75592 27001 ft 525 kts 48°
2026-04-20 13:18 40.11818 14.79124 26995 ft 520 kts 48°
2026-04-20 13:18 40.14184 14.82546 26982 ft 495 kts 48°
2026-04-20 13:19 40.16454 14.85792 26979 ft 474 kts 47°
2026-04-20 13:19 40.18667 14.88863 26983 ft 454 kts 46°
2026-04-20 13:19 40.20811 14.91803 26796 ft 441 kts 46°
2026-04-20 13:19 40.22904 14.94669 26499 ft 432 kts 46°
2026-04-20 13:20 40.24963 14.97500 26082 ft 426 kts 46°
2026-04-20 13:20 40.26986 15.00295 25686 ft 420 kts 46°
2026-04-20 13:20 40.28981 15.03060 25288 ft 415 kts 46°
2026-04-20 13:20 40.30949 15.05793 24886 ft 410 kts 46°
2026-04-20 13:21 40.32895 15.08500 24491 ft 406 kts 46°
2026-04-20 13:21 40.34817 15.11176 24095 ft 401 kts 47°
2026-04-20 13:21 40.36717 15.13825 23702 ft 397 kts 47°
2026-04-20 13:21 40.38601 15.16452 23314 ft 393 kts 47°
2026-04-20 13:22 40.40462 15.19047 22930 ft 389 kts 47°
2026-04-20 13:22 40.42307 15.21624 22547 ft 385 kts 47°
2026-04-20 13:22 40.44137 15.24174 22135 ft 382 kts 46°
2026-04-20 13:22 40.45930 15.26669 22038 ft 367 kts 46°
2026-04-20 13:23 40.47655 15.29072 21606 ft 358 kts 46°
2026-04-20 13:23 40.49362 15.31453 20951 ft 357 kts 46°
2026-04-20 13:23 40.51061 15.33824 20321 ft 356 kts 47°
2026-04-20 13:23 40.52748 15.36181 19752 ft 352 kts 47°
2026-04-20 13:24 40.54414 15.38511 19202 ft 348 kts 47°
2026-04-20 13:24 40.56061 15.40816 18653 ft 344 kts 47°
2026-04-20 13:24 40.57681 15.43084 18261 ft 339 kts 47°
2026-04-20 13:24 40.59293 15.45343 17904 ft 338 kts 47°
2026-04-20 13:25 40.60872 15.47621 17560 ft 336 kts 51°
2026-04-20 13:25 40.62277 15.50068 17223 ft 334 kts 54°
2026-04-20 13:25 40.63607 15.52569 16893 ft 332 kts 55°
2026-04-20 13:25 40.64922 15.55057 16555 ft 330 kts 55°
2026-04-20 13:26 40.66241 15.57525 16222 ft 328 kts 54°
2026-04-20 13:26 40.67545 15.59932 15903 ft 326 kts 54°
2026-04-20 13:26 40.68884 15.62388 15567 ft 325 kts 54°
2026-04-20 13:26 40.70197 15.64794 15242 ft 323 kts 54°
2026-04-20 13:27 40.71457 15.67179 14918 ft 321 kts 60°
2026-04-20 13:27 40.72398 15.69833 14603 ft 318 kts 68°
2026-04-20 13:27 40.73201 15.72583 14285 ft 317 kts 69°
2026-04-20 13:27 40.73965 15.75257 13962 ft 315 kts 69°
2026-04-20 13:28 40.74743 15.77953 13643 ft 314 kts 69°
2026-04-20 13:28 40.75526 15.80629 13323 ft 312 kts 69°
2026-04-20 13:28 40.76310 15.83284 13009 ft 310 kts 69°
2026-04-20 13:28 40.77099 15.85935 12691 ft 309 kts 69°
2026-04-20 13:29 40.77884 15.88566 12379 ft 308 kts 69°
2026-04-20 13:29 40.78667 15.91190 12060 ft 307 kts 69°
2026-04-20 13:29 40.79457 15.93834 11748 ft 305 kts 69°
2026-04-20 13:29 40.80224 15.96403 11434 ft 304 kts 69°
2026-04-20 13:30 40.80992 15.98975 11251 ft 298 kts 69°
2026-04-20 13:30 40.81740 16.01485 11113 ft 290 kts 69°
2026-04-20 13:30 40.82616 16.03839 10951 ft 284 kts 51°
2026-04-20 13:30 40.84085 16.05530 10753 ft 279 kts 33°
2026-04-20 13:31 40.85725 16.06896 10537 ft 279 kts 31°
2026-04-20 13:31 40.87385 16.08238 10299 ft 280 kts 31°
2026-04-20 13:31 40.89044 16.09585 10060 ft 279 kts 31°
2026-04-20 13:31 40.90690 16.10939 9826 ft 278 kts 32°
2026-04-20 13:32 40.92318 16.12291 9590 ft 275 kts 32°
2026-04-20 13:32 40.93931 16.13634 9360 ft 273 kts 32°
2026-04-20 13:32 40.95526 16.14967 9132 ft 270 kts 33°
2026-04-20 13:32 40.96864 16.16672 8836 ft 270 kts 57°
2026-04-20 13:33 40.97745 16.18860 8531 ft 270 kts 66°
2026-04-20 13:33 40.98233 16.20410 8305 ft 271 kts 69°
2026-04-20 13:33 40.98900 16.22756 7960 ft 273 kts 70°
2026-04-20 13:33 40.99552 16.25124 7617 ft 275 kts 70°
2026-04-20 13:34 41.00209 16.27504 7270 ft 276 kts 70°
2026-04-20 13:34 41.00875 16.29903 6915 ft 278 kts 70°
2026-04-20 13:34 41.01546 16.32308 6562 ft 279 kts 70°
2026-04-20 13:34 41.02213 16.34695 6210 ft 281 kts 70°
2026-04-20 13:35 41.02892 16.37121 5852 ft 282 kts 70°
2026-04-20 13:35 41.03583 16.39587 5497 ft 283 kts 70°
2026-04-20 13:35 41.04259 16.42002 5140 ft 284 kts 70°
2026-04-20 13:35 41.04946 16.44458 4774 ft 285 kts 70°
2026-04-20 13:36 41.05637 16.46920 4411 ft 285 kts 70°
2026-04-20 13:36 41.06330 16.49387 4062 ft 285 kts 70°
2026-04-20 13:36 41.07010 16.51808 3769 ft 274 kts 70°
2026-04-20 13:36 41.07656 16.54108 3394 ft 256 kts 70°
2026-04-20 13:37 41.08248 16.56211 3064 ft 232 kts 70°
2026-04-20 13:37 41.08788 16.58127 2751 ft 213 kts 70°
2026-04-20 13:37 41.09283 16.59886 2499 ft 194 kts 70°
2026-04-20 13:37 41.09730 16.61473 2265 ft 174 kts 70°
2026-04-20 13:38 41.10136 16.62914 2020 ft 160 kts 70°
2026-04-20 13:38 41.10526 16.64298 1780 ft 161 kts 70°
2026-04-20 13:38 41.10909 16.65682 1521 ft 158 kts 71°
2026-04-20 13:38 41.11276 16.67026 1292 ft 153 kts 70°
2026-04-20 13:39 41.11658 16.68360 1064 ft 158 kts 69°
2026-04-20 13:39 41.12059 16.69727 877 ft 161 kts 70°
2026-04-20 13:39 41.12452 16.71100 674 ft 158 kts 69°
2026-04-20 13:39 41.12852 16.72484 471 ft 159 kts 70°
2026-04-20 13:40 41.13224 16.73837 204 ft 153 kts 70°
2026-04-20 13:40 41.13577 16.75094 138 ft 135 kts 67°
2026-04-20 13:40 41.13856 16.76072 134 ft 91 kts 69°
2026-04-20 13:40 41.14026 16.76674 125 ft 48 kts 69°
2026-04-20 13:41 41.14095 16.76921 124 ft 19 kts 69°
2026-04-20 13:41 41.14140 16.77083 123 ft 18 kts 70°
2026-04-20 13:41 41.14183 16.77242 118 ft 19 kts 70°
2026-04-20 13:41 41.14207 16.77413 116 ft 17 kts 102°
2026-04-20 13:42 41.14173 16.77424 117 ft 5 kts 190°
2026-04-20 13:42 41.14069 16.77385 120 ft 15 kts 208°
2026-04-20 13:42 41.14009 16.77277 121 ft 15 kts 248°
2026-04-20 13:43 41.13974 16.77153 121 ft 14 kts 249°
2026-04-20 13:43 41.13940 16.77035 121 ft 13 kts 249°
2026-04-20 13:43 41.13908 16.76923 121 ft 13 kts 249°
2026-04-20 13:43 41.13878 16.76815 124 ft 13 kts 249°
2026-04-20 13:44 41.13813 16.76769 126 ft 12 kts 165°
2026-04-20 13:44 41.13755 16.76706 134 ft 12 kts 247°
2026-04-20 13:44 41.13724 16.76592 135 ft 15 kts 250°
2026-04-20 13:44 41.13671 16.76536 135 ft 10 kts 208°
2026-04-20 13:45 41.13616 16.76493 135 ft 7 kts 155°
2026-04-20 13:45 41.13574 16.76514 135 ft 0 kts 158°
2026-04-20 13:45 41.13573 16.76515 135 ft 0 kts 158°